Location: Grandview
(34.8900°N, 117.1058°W)
Time: 04:07:58
(UTC-08:00)

Hubble Space Telescope - Pass Details

Date: 11 October 2017
Orbit: 537 x 541 km, 28.5° (Epoch: 16 December)

Event Time Altitude Azimuth Distance (km) Brightness Sun altitude
Exits shadow 05:10:03 17° 182° (S) 1,404 2.8 -21.5°
Drops below altitude 10° 05:12:01 10° 155° (SSE) 1,783 3.6 -21.1°
Sets 05:14:50 0° 135° (SE) 2,673 4.9 -20.6°
